Date,TemperatureHighF,TemperatureAvgF,TemperatureLowF,DewpointHighF,DewpointAvgF,DewpointLowF,HumidityHigh,HumidityAvg,HumidityLow,PressureMaxIn,PressureMinIn,WindSpeedMaxMPH,WindSpeedAvgMPH,GustSpeedMaxMPH,PrecipitationSumIn
2013-1-1,0.0,0.0,0.0,0.0,0.0,0.0,0,0,100,29.94,29.83,15,3,15,0.04
2013-1-2,49.1,11.0,0.0,34.2,7.2,0.0,64,12,45,30.06,29.88,14,5,14,0.08
2013-1-3,49.1,42.1,32.7,38.3,30.9,23.6,92,65,52,30.24,30.06,13,3,13,0.47
2013-1-4,57.2,43.6,33.1,40.2,32.0,23.3,82,64,52,30.30,30.18,11,3,11,0.00
2013-1-5,52.5,47.0,39.0,36.8,32.9,28.4,78,58,53,30.24,30.09,10,4,10,0.00
2013-1-6,50.9,47.2,41.2,45.7,41.2,33.9,100,81,56,30.15,30.03,13,4,13,0.16
2013-1-7,60.1,42.3,35.9,43.8,37.2,32.6,100,84,54,30.18,30.03,11,2,11,0.00
2013-1-8,61.0,54.5,43.7,60.1,49.9,38.3,100,85,74,30.09,29.97,17,5,17,0.00
2013-1-9,65.3,62.4,59.0,65.1,61.4,55.3,100,97,82,30.06,29.97,20,8,20,0.00
2013-1-10,63.8,61.5,59.9,63.8,61.5,58.4,100,100,89,30.06,29.83,13,5,15,0.39
2013-1-11,70.7,64.5,60.2,66.6,61.7,59.8,100,92,69,30.00,29.91,13,3,13,0.00
2013-1-12,72.1,66.6,63.7,68.7,65.5,63.7,100,96,80,29.94,29.83,14,5,14,0.00
2013-1-13,70.9,66.1,57.6,70.0,65.0,57.6,100,96,84,29.88,29.80,15,5,15,0.08
2013-1-14,58.8,53.4,44.4,57.6,52.8,43.4,100,98,87,29.97,29.88,14,5,14,0.28
2013-1-15,60.4,53.5,46.4,60.4,53.3,46.4,100,99,90,29.94,29.80,10,2,10,0.16
2013-1-16,53.2,46.9,40.6,53.2,43.9,36.2,100,89,75,29.97,29.83,13,4,13,0.12
2013-1-17,54.1,44.4,37.6,42.2,36.7,30.6,96,75,64,30.24,29.97,22,4,22,0.08
2013-1-18,59.4,45.4,36.9,46.8,38.6,33.5,92,78,63,30.39,30.24,15,2,15,0.08
2013-1-19,66.7,49.5,36.1,52.9,42.8,33.8,98,79,61,30.27,30.12,10,1,10,0.08
2013-1-20,66.6,50.8,38.1,53.5,44.7,35.8,100,81,61,30.15,30.00,9,1,9,0.08
2013-1-21,67.5,52.4,39.0,53.6,44.7,36.8,100,77,58,30.09,30.00,11,1,11,0.08
2013-1-22,61.0,48.8,40.1,47.0,38.9,29.8,87,69,58,30.24,30.06,11,1,11,0.08
2013-1-23,67.1,52.5,37.0,52.7,44.8,34.1,100,77,58,30.27,30.18,11,1,11,0.08
2013-1-24,72.7,55.6,43.2,58.6,49.7,40.5,100,82,60,30.21,30.09,13,2,13,0.00
2013-1-25,72.3,60.5,47.8,59.7,55.1,46.0,100,84,62,30.15,30.00,13,2,13,0.00
2013-1-26,75.6,61.9,51.8,64.6,56.8,51.0,100,85,62,30.12,30.06,12,2,12,0.00
2013-1-27,70.5,61.1,52.2,63.1,58.5,50.2,100,91,68,30.18,30.09,10,2,10,0.00
2013-1-28,75.2,66.1,58.3,66.6,63.3,58.3,100,92,65,30.12,30.00,14,4,14,0.00
2013-1-29,71.2,68.0,65.5,69.6,67.7,65.5,100,99,89,30.00,29.71,15,4,15,0.00
2013-1-30,70.5,60.3,43.9,69.4,54.9,33.3,100,83,63,30.03,29.56,25,5,25,0.67
2013-1-31,62.2,48.6,35.4,48.9,38.5,31.0,90,69,60,30.21,30.00,15,2,15,0.00
2013-2-1,66.0,49.9,40.6,51.3,41.5,36.1,88,74,59,30.27,30.18,11,1,11,0.00
2013-2-2,65.8,50.1,34.5,53.0,42.7,29.9,94,77,61,30.21,30.06,12,2,12,0.00
2013-2-3,68.5,55.4,43.7,55.0,47.6,39.9,100,77,58,30.15,30.00,13,2,13,0.00
2013-2-4,63.5,53.4,40.3,59.2,47.3,36.8,100,81,62,30.00,29.83,8,2,8,0.00
2013-2-5,69.6,61.7,54.1,60.4,57.7,52.5,100,88,66,29.91,29.80,12,2,12,0.00
2013-2-6,69.1,60.7,53.4,61.7,57.5,51.9,100,90,66,30.00,29.85,12,3,12,1.00
2013-2-7,77.9,65.1,54.5,63.2,59.2,31.4,100,83,61,29.85,29.65,19,4,19,1.94
2013-2-8,75.6,59.8,51.1,63.0,55.7,49.5,100,88,64,30.03,29.83,13,1,13,0.00
2013-2-9,66.0,56.9,49.6,61.7,49.8,44.1,99,77,67,30.12,29.94,12,5,12,0.00
2013-2-10,69.1,66.5,62.2,68.4,64.2,59.7,100,93,80,29.94,29.83,18,6,18,0.00
2013-2-11,68.7,62.6,58.3,68.7,61.5,56.3,100,97,76,29.97,29.85,15,4,15,0.28
2013-2-12,68.5,62.5,57.9,68.5,62.4,57.9,100,100,94,29.91,29.62,15,4,15,0.20
2013-2-13,66.6,56.4,43.2,66.6,53.7,40.6,100,91,72,29.94,29.65,17,4,17,0.16
2013-2-14,61.5,48.6,39.9,49.7,43.1,38.1,99,83,65,30.03,29.91,10,2,10,0.00
2013-2-15,66.9,51.1,36.1,54.4,43.9,34.6,100,78,62,30.03,29.94,13,2,13,0.00
2013-2-16,57.0,47.7,33.8,44.8,37.2,25.7,79,67,61,30.15,29.97,20,4,20,0.00
2013-2-17,59.0,48.3,30.0,46.4,37.3,25.2,88,66,61,30.27,30.12,11,3,11,0.00
2013-2-18,67.8,59.1,51.3,59.8,50.9,39.3,93,75,61,30.12,29.88,14,7,16,0.00
2013-2-19,69.1,60.0,44.2,61.5,51.9,32.7,100,76,61,30.09,29.85,18,4,18,0.31
2013-2-20,60.6,52.8,43.0,48.0,40.7,32.2,83,64,61,30.12,29.91,11,4,12,0.00
2013-2-21,66.0,58.4,48.4,64.4,52.0,36.4,100,80,62,29.91,29.68,16,5,16,0.00
2013-2-22,69.6,64.6,59.2,68.2,60.6,54.2,100,88,64,29.85,29.74,13,3,13,1.46
2013-2-23,61.9,58.9,56.7,59.8,56.4,49.0,100,92,73,29.83,29.68,23,3,23,1.50
2013-2-24,70.0,59.2,48.2,60.8,51.9,46.0,100,78,66,29.85,29.65,13,4,13,0.35
2013-2-25,67.6,62.9,60.3,67.6,62.2,51.0,100,98,71,29.65,29.35,20,6,20,4.49
2013-2-26,63.0,56.1,48.7,51.8,45.6,38.5,83,68,63,29.80,29.41,17,5,17,0.04
2013-2-27,68.2,57.1,47.5,55.0,49.4,43.4,97,77,61,29.91,29.80,13,3,13,0.04
2013-2-28,62.1,52.1,42.3,49.2,41.2,35.5,86,67,61,29.97,29.88,17,3,17,0.04
2013-3-1,63.9,50.9,41.0,50.6,40.9,30.5,87,69,60,30.03,29.88,18,3,18,0.04
2013-3-2,54.7,42.7,34.5,41.6,32.5,26.6,84,67,62,30.12,29.97,17,4,17,0.04
2013-3-3,58.3,43.6,30.2,44.9,33.2,22.5,82,67,61,30.15,30.00,13,3,13,0.04
2013-3-4,69.1,55.9,36.5,55.1,47.2,33.3,100,74,61,30.03,29.83,15,5,15,0.04
2013-3-5,77.2,64.1,48.0,63.2,55.0,39.4,90,73,60,30.03,29.83,18,5,18,0.04
2013-3-6,65.5,51.3,38.8,51.8,39.7,29.2,81,64,60,30.18,30.03,16,3,16,0.04
2013-3-7,65.8,49.9,37.0,52.3,39.4,29.4,84,68,60,30.21,30.09,11,2,11,0.04
2013-3-8,72.0,54.6,37.9,57.3,45.3,34.5,93,72,60,30.18,30.06,11,2,11,0.04
2013-3-9,71.1,64.4,49.5,57.9,53.4,46.7,95,68,61,30.06,29.94,17,6,17,0.00
2013-3-10,66.7,66.4,65.8,66.0,65.0,64.2,100,95,92,29.80,29.77,13,6,13,0.04
2013-3-11,65.8,57.0,46.6,65.8,52.0,39.1,100,84,66,29.88,29.68,17,4,17,0.00
2013-3-12,69.3,53.4,40.3,55.1,44.0,36.4,90,71,61,30.06,29.88,12,2,13,0.00
2013-3-13,69.4,54.8,40.6,55.2,44.7,36.5,87,70,60,30.24,30.06,15,3,18,0.00
2013-3-14,69.1,46.9,38.3,54.9,35.5,27.8,83,64,59,30.30,30.18,13,1,13,0.00
2013-3-15,74.7,58.8,41.2,59.9,49.4,37.9,95,72,60,30.18,30.00,15,4,15,0.00
2013-3-16,80.1,66.2,50.0,65.4,57.1,46.6,100,74,59,30.00,29.85,16,5,16,0.00
2013-3-17,65.1,59.5,56.3,62.9,56.6,53.7,99,90,82,29.85,29.83,8,0,8,0.00
2013-3-18,67.6,67.6,67.6,65.9,65.9,65.9,94,94,94,29.77,29.74,5,5,5,0.00
2013-3-20,70.2,59.1,44.6,56.1,46.7,35.0,76,63,60,30.00,29.85,15,4,15,0.04
2013-3-21,70.3,55.3,41.2,56.3,43.7,32.6,79,65,60,29.94,29.77,13,3,13,0.00
2013-3-22,70.7,63.5,55.4,61.9,54.0,43.4,91,72,61,29.77,29.68,14,6,14,0.04
2013-3-23,64.4,64.2,63.9,61.5,60.7,59.0,91,88,83,29.74,29.65,13,6,13,0.00
2013-3-26,45.1,42.0,39.2,33.7,31.0,28.4,65,65,64,30.24,30.21,4,0,4,0.16
2013-3-27,64.4,48.4,33.4,51.1,38.0,26.6,84,68,60,30.33,30.15,13,3,13,0.00
2013-3-28,72.1,53.9,36.1,57.3,44.7,32.1,95,72,60,30.24,30.12,14,3,14,0.00
2013-3-29,74.1,57.2,42.6,59.4,49.3,39.3,100,77,60,30.21,30.09,11,2,11,0.00
2013-3-30,81.0,65.6,49.8,66.3,57.0,47.0,94,75,59,30.09,29.91,10,3,11,0.00
2013-3-31,84.4,67.9,56.8,70.2,61.6,54.2,100,82,60,29.94,29.74,18,3,18,0.16
2013-4-1,80.2,65.5,56.8,65.1,59.2,53.2,100,82,59,29.94,29.80,12,2,12,0.12
2013-4-2,81.9,66.2,50.9,66.8,57.2,48.4,100,75,58,30.00,29.83,11,3,11,0.00
2013-4-3,68.2,62.2,56.1,66.9,59.2,50.7,100,90,72,29.91,29.62,31,5,31,3.11
2013-4-4,70.0,56.2,53.6,58.1,53.1,50.0,100,90,63,29.85,29.77,12,2,12,0.00
2013-4-6,78.1,69.1,63.0,62.6,55.9,51.8,71,63,59,30.00,29.94,11,4,11,0.00
2013-4-7,79.3,67.6,52.9,64.6,58.7,49.4,95,74,59,30.00,29.88,13,4,13,0.00
2013-4-8,84.7,69.6,65.5,70.2,65.9,63.3,100,89,60,29.91,29.83,14,4,14,0.00
2013-4-9,82.4,73.9,69.4,71.6,69.3,66.3,100,87,64,29.91,29.80,16,5,16,0.00
2013-4-10,84.6,75.4,70.0,71.4,69.8,66.9,100,84,63,29.88,29.74,17,6,17,0.00
2013-4-11,85.6,71.0,57.2,73.9,67.7,54.2,100,90,64,29.74,29.47,23,6,23,1.38
2013-4-12,78.4,62.9,50.9,62.6,54.0,46.4,96,74,59,29.85,29.68,17,3,17,0.00
2013-4-13,80.2,60.3,51.1,64.6,52.3,47.3,90,76,59,29.91,29.83,10,2,10,0.00
2013-4-14,72.5,65.7,58.5,65.0,61.3,57.0,100,86,66,29.77,29.62,21,4,21,3.03
2013-4-15,79.0,71.0,63.9,72.7,68.9,63.9,100,93,74,29.88,29.68,11,3,11,0.00
2013-4-16,85.5,76.0,71.6,73.9,71.6,68.9,100,87,64,29.97,29.85,12,4,12,0.00
2013-4-17,84.9,75.7,70.9,73.1,71.3,68.9,100,87,64,29.97,29.85,16,4,16,0.00
2013-4-18,85.1,76.3,71.6,75.9,70.6,67.5,100,84,64,29.85,29.71,17,6,17,0.00
2013-4-19,75.7,58.5,46.2,75.8,56.1,43.9,100,92,66,30.06,29.68,18,4,18,0.98
2013-4-20,73.6,56.9,41.0,59.0,48.5,39.3,96,75,60,30.15,29.97,0,0,0,0.98
2013-4-21,51.1,49.1,47.3,46.1,44.8,43.0,87,85,83,30.06,30.03,0,0,0,0.00
2013-4-22,80.2,71.5,51.1,67.0,60.6,49.1,96,69,61,30.00,29.91,0,0,0,0.00
2013-4-25,61.5,60.1,59.0,52.2,51.0,49.9,78,72,68,30.12,30.12,0,0,0,0.55
2013-4-26,78.4,67.2,54.1,64.7,56.8,46.5,92,70,59,30.15,30.09,0,0,0,0.00
2013-4-27,87.6,75.1,65.1,73.0,68.2,64.4,100,81,60,30.09,29.91,14,2,14,0.00
2013-4-28,84.6,73.2,65.7,74.3,68.9,63.2,100,87,65,29.94,29.83,12,2,12,0.31
2013-4-29,89.2,74.7,63.3,74.5,67.1,62.8,100,80,59,29.85,29.77,13,2,13,0.00
2013-4-30,81.5,72.4,65.5,71.5,68.2,64.3,100,88,66,29.83,29.74,13,2,13,0.75
2013-5-1,84.4,71.1,65.5,72.6,68.6,64.8,100,93,65,29.80,29.68,17,3,17,0.87
2013-5-2,79.9,69.8,65.5,68.4,66.3,64.1,100,90,65,29.83,29.71,15,3,15,1.30
2013-5-3,82.0,70.6,49.5,68.7,64.6,43.9,100,82,64,29.85,29.71,17,4,17,0.12
2013-5-4,59.7,48.1,44.2,47.1,43.3,41.8,93,84,63,29.88,29.83,13,2,13,0.00
2013-5-5,63.1,63.1,63.0,54.3,54.1,53.8,73,72,72,29.71,29.71,13,5,13,0.00
2013-5-6,79.5,69.3,48.2,64.0,56.9,44.5,92,66,59,29.88,29.80,21,4,21,0.00
2013-5-7,85.1,70.0,54.5,68.2,60.0,51.6,92,72,57,29.91,29.83,13,2,13,0.00
2013-5-8,90.0,74.0,58.3,73.7,63.3,56.0,94,71,56,29.97,29.88,10,3,13,0.00
2013-5-9,88.7,76.7,65.1,72.4,67.0,62.0,97,73,57,30.00,29.91,15,4,15,0.00
2013-5-10,74.1,70.3,65.1,72.0,67.9,63.9,100,92,75,29.97,29.77,20,4,20,1.34
2013-5-11,80.8,70.4,63.0,70.5,66.0,63.0,100,87,64,29.91,29.83,9,1,9,0.47
2013-5-12,83.7,72.3,62.2,67.5,62.4,53.6,100,73,58,30.00,29.88,12,2,12,0.00
2013-5-13,84.7,62.8,54.1,67.7,53.8,47.9,84,73,57,30.15,30.00,10,1,10,0.00
2013-5-14,77.0,72.3,69.6,61.6,58.5,56.4,66,62,59,30.06,30.03,10,3,10,0.08
2013-5-15,90.1,74.9,60.1,73.9,63.4,56.7,90,69,56,30.09,29.91,11,3,11,0.00
2013-5-16,72.5,70.9,70.5,68.9,66.7,65.5,89,87,83,29.88,29.85,7,3,7,0.00
2013-5-25,91.4,83.1,65.5,73.3,66.6,52.1,62,58,56,30.09,30.00,15,5,15,0.20
2013-5-27,89.4,81.3,76.5,72.0,65.6,61.1,64,59,57,29.94,29.91,15,6,15,0.00
2013-5-28,76.5,76.2,75.9,62.2,61.4,60.8,62,60,59,29.94,29.94,13,6,13,0.00
2013-5-29,92.1,83.5,77.7,76.4,72.2,69.9,85,69,58,29.91,29.85,24,7,24,0.00
2013-5-30,88.5,80.6,77.2,75.0,71.6,69.4,91,74,62,29.91,29.85,20,7,20,0.12
2013-5-31,79.0,78.5,78.1,73.4,72.5,71.7,85,82,79,29.88,29.83,19,8,19,0.00
2013-6-1,95.9,90.7,82.9,79.6,76.0,71.9,75,62,58,29.85,29.80,14,5,14,0.00
2013-6-7,92.1,84.6,73.6,75.7,72.0,67.3,88,67,56,29.77,29.68,10,2,10,0.31
2013-6-8,96.1,78.8,71.4,79.3,71.7,68.6,98,81,58,29.88,29.74,18,2,18,0.00
2013-6-9,92.1,80.5,74.5,78.3,72.9,69.0,100,78,61,29.85,29.80,17,4,19,0.20
2013-6-10,95.5,83.6,72.9,79.4,75.5,70.2,100,78,60,29.91,29.83,13,3,13,0.43
2013-6-11,100.4,87.8,76.5,83.1,77.1,70.4,100,73,55,29.97,29.88,11,2,11,0.43
2013-6-12,101.1,87.9,75.2,82.8,76.1,69.9,95,70,54,29.97,29.88,9,2,9,0.43
2013-6-13,101.5,81.8,77.2,82.7,75.6,71.0,97,83,56,29.91,29.85,11,2,11,0.00
2013-6-14,100.2,91.2,78.1,82.1,74.8,64.8,71,59,54,29.80,29.71,10,3,10,0.00
2013-6-15,77.9,76.6,75.2,66.0,64.5,63.7,73,66,64,29.83,29.80,5,1,5,0.00
2013-6-16,99.3,86.2,78.6,81.4,76.0,69.5,89,73,57,29.88,29.83,13,2,13,0.00
2013-6-17,99.1,87.5,76.3,81.1,75.0,70.7,91,67,57,29.88,29.80,18,3,18,0.00
2013-6-18,99.3,87.9,76.6,80.9,74.3,66.2,96,65,54,29.88,29.74,15,3,15,0.04
2013-6-19,94.1,83.0,72.9,77.1,71.8,65.7,89,70,56,29.88,29.80,13,1,13,0.00
2013-6-20,99.7,83.9,73.2,81.7,73.8,67.0,93,74,54,29.97,29.88,15,2,15,0.08
2013-6-21,96.4,83.6,74.8,78.9,73.5,70.7,91,73,58,29.97,29.91,10,1,10,0.08
2013-6-22,93.6,81.4,72.0,77.6,72.4,68.0,98,76,58,29.97,29.85,11,2,11,0.08
2013-6-23,99.9,84.8,71.8,81.7,74.4,69.5,100,73,55,29.94,29.88,12,2,12,0.08
2013-6-24,100.2,86.5,79.2,82.2,75.1,69.4,84,70,57,30.00,29.94,11,3,11,0.00
2013-6-25,89.4,82.7,81.3,73.7,72.6,69.5,77,72,57,29.97,29.88,10,3,10,0.00
2013-6-26,100.4,88.7,78.4,82.2,75.5,70.0,87,66,55,29.94,29.83,13,3,13,0.00
2013-6-27,92.1,83.8,81.9,76.7,75.8,73.3,84,77,58,29.88,29.77,10,2,10,0.00
2013-6-28,101.1,88.0,80.2,82.5,78.9,70.7,100,77,54,29.80,29.62,13,3,13,0.00
2013-7-2,78.6,78.0,77.4,68.8,67.0,66.2,75,69,66,29.85,29.85,0,0,0,0.00
2013-7-3,93.7,78.4,73.2,76.7,72.2,68.3,100,83,58,29.88,29.77,12,2,12,2.52
2013-7-4,95.2,82.1,73.4,78.1,73.8,69.2,100,78,58,29.85,29.77,15,3,15,0.04
2013-7-5,79.2,76.7,74.1,78.4,75.7,71.8,100,97,82,29.88,29.83,17,1,17,0.75
2013-7-6,84.6,77.9,73.9,76.9,74.5,71.1,100,90,66,29.91,29.83,12,3,12,0.94
2013-7-7,87.4,78.8,75.7,79.2,76.5,73.7,100,93,69,30.00,29.83,10,2,10,0.12
2013-7-8,96.8,83.1,74.5,80.6,75.5,73.2,100,80,58,30.03,29.94,15,2,15,0.00
2013-7-9,97.3,88.7,73.2,81.0,75.8,70.0,100,67,57,30.06,29.94,13,2,13,0.00
2013-7-10,99.9,88.8,76.5,81.9,76.9,54.3,100,70,55,29.97,29.83,13,3,13,0.00
2013-7-11,88.1,77.0,71.3,78.4,74.2,69.0,100,92,64,29.88,29.74,17,2,20,0.98
2013-7-12,75.8,72.3,70.8,71.5,70.7,67.9,100,95,78,29.80,29.71,4,0,5,0.24
2013-7-13,100.2,81.2,69.9,75.6,70.1,60.2,100,73,41,29.80,29.71,27,1,27,0.67
2013-7-14,89.0,80.1,70.8,79.9,71.5,56.0,100,78,35,29.85,29.77,11,2,11,0.00
2013-7-15,89.0,77.0,67.6,77.7,70.4,65.9,100,83,53,29.91,29.80,17,3,17,0.00
2013-7-16,84.1,71.7,69.4,78.2,71.3,68.0,100,99,65,31.01,29.85,11,2,11,0.04
2013-7-17,90.6,79.5,67.8,78.3,71.8,67.8,100,80,59,31.01,31.01,12,3,12,0.00
2013-7-18,69.9,67.8,66.9,69.9,67.8,66.9,100,100,100,17.72,17.72,4,0,4,0.00
2013-7-19,91.2,79.8,66.1,79.0,70.5,64.6,100,76,50,17.72,17.72,15,4,15,0.00
2013-7-20,91.9,78.3,68.3,79.1,70.8,66.1,100,81,50,0.00,40.00,10,2,11,0.00
2013-7-21,83.6,75.3,68.5,82.0,74.1,68.5,100,96,65,17.72,17.72,17,2,17,2.76
2013-7-22,91.9,76.6,70.5,82.3,73.8,63.9,100,92,59,17.72,17.72,15,2,15,0.08
2013-7-23,92.8,80.5,71.4,82.2,72.3,62.7,100,80,44,17.72,17.72,18,2,18,0.08
2013-7-24,91.5,80.3,72.3,80.2,73.0,66.3,100,81,50,17.72,17.72,11,3,13,0.16
2013-7-25,91.7,76.9,69.0,77.6,71.4,62.2,100,87,44,17.72,17.72,10,1,10,0.00
2013-7-26,94.8,78.5,66.9,79.2,69.4,58.9,100,78,41,17.72,17.72,9,1,9,0.04
2013-7-27,81.3,75.1,69.6,80.9,74.8,69.6,100,99,74,17.72,17.72,13,1,13,0.08
2013-7-28,85.0,73.8,69.6,78.7,71.7,69.2,100,94,65,17.72,17.72,12,2,12,0.00
2013-7-29,94.0,83.2,74.2,79.4,72.4,66.5,100,73,50,17.72,17.72,6,1,6,0.00
2013-7-30,76.9,76.7,76.2,76.9,76.7,76.1,100,100,100,17.72,17.72,6,2,6,0.00
2013-8-1,94.0,83.8,71.7,74.5,69.7,62.4,100,66,41,17.72,17.72,14,2,14,0.00
2013-8-2,94.6,80.2,67.6,78.0,70.3,61.4,100,77,41,17.72,17.72,12,2,12,0.00
2013-8-3,96.4,82.0,68.7,82.0,70.5,62.7,100,73,38,17.72,17.72,11,2,11,0.00
2013-8-4,96.4,83.0,71.9,81.7,71.8,61.3,100,74,41,17.72,17.72,11,2,11,0.00
2013-8-5,93.9,80.0,71.7,80.3,73.5,62.4,100,84,44,17.72,17.72,14,2,14,0.08
2013-8-6,72.4,72.2,72.1,72.4,72.2,71.9,100,100,100,17.72,17.72,0,0,0,0.00
2013-8-8,97.7,90.5,74.8,80.2,43.7,25.9,100,24,8,17.72,17.72,13,4,13,0.00
2013-8-9,97.9,86.7,78.6,81.2,54.6,25.9,100,41,10,17.72,17.72,15,3,15,0.43
2013-8-10,99.7,88.3,79.2,73.7,45.0,8.1,80,28,4,17.72,17.72,13,4,13,0.00
2013-8-11,100.6,89.0,81.5,64.2,42.1,-3.9,52,26,2,17.72,17.72,13,4,13,0.00
2013-8-12,84.0,81.8,78.6,80.6,68.0,57.0,100,66,40,17.72,17.72,9,1,9,0.67
2013-8-13,98.4,90.0,77.4,81.5,52.0,25.9,100,40,8,17.72,17.72,11,3,11,0.00
2013-8-15,93.4,85.5,75.2,68.0,46.3,27.2,78,33,10,17.72,17.72,8,1,8,0.59
2013-8-16,94.6,81.7,73.2,74.8,55.8,27.2,100,52,10,17.72,17.72,11,2,11,0.00
2013-8-17,81.0,75.9,73.9,75.6,68.0,49.8,100,79,40,17.72,17.72,12,2,12,0.20
2013-8-18,87.8,77.0,71.8,81.2,70.6,48.4,100,84,28,17.72,17.72,14,2,14,1.06
2013-8-19,95.7,82.0,70.3,76.3,57.9,28.3,100,58,10,17.72,17.72,10,1,10,1.10
2013-8-20,84.0,75.5,73.8,74.7,72.3,60.9,100,91,46,17.72,17.72,5,0,5,0.04
2013-8-21,94.6,82.9,75.6,79.5,57.1,27.7,100,52,10,17.72,17.72,12,2,12,0.04
2013-8-22,96.1,83.9,73.9,75.8,53.8,27.2,100,49,10,17.72,17.72,15,2,15,0.04
2013-8-23,88.7,83.0,76.6,72.1,57.0,41.6,80,44,20,17.72,17.72,13,4,13,0.08
2013-8-24,83.7,77.7,74.7,77.6,69.3,40.4,100,79,24,17.72,17.72,11,2,11,0.79
2013-8-25,89.1,79.9,74.8,76.7,65.2,44.4,100,66,22,17.72,17.72,13,4,13,0.04
2013-8-26,91.4,80.8,73.8,76.1,54.2,14.4,100,51,6,17.72,17.72,12,3,12,0.00
2013-8-27,88.3,73.1,67.5,69.0,58.4,28.9,88,67,12,17.72,17.72,6,1,6,0.00
2013-9-1,96.3,92.5,88.7,59.9,41.6,29.4,38,18,10,17.72,17.72,8,4,10,0.00
2013-9-4,98.8,86.6,73.8,74.6,52.3,25.9,92,42,8,17.72,17.72,11,2,11,0.00
2013-9-5,78.1,77.1,75.6,75.4,73.8,70.9,96,90,80,17.72,17.72,0,0,0,0.00
2013-9-10,86.2,76.2,72.3,74.1,67.4,45.2,100,78,30,17.72,17.72,6,1,6,0.00
2013-9-12,96.6,83.7,71.6,70.5,46.4,7.4,94,38,4,17.72,17.72,13,3,13,0.00
2013-9-13,99.0,83.8,71.8,76.5,46.0,7.4,100,43,4,17.72,17.72,10,1,10,0.00
2013-9-14,93.2,80.6,73.8,67.9,47.6,7.4,68,40,4,17.72,17.72,8,2,8,0.00
2013-9-15,94.3,81.8,69.6,66.9,42.2,7.4,74,33,4,17.72,17.72,13,2,13,0.00
2013-9-16,95.9,83.0,72.1,77.2,53.8,27.2,100,53,10,17.72,17.72,12,2,12,0.04
2013-9-20,94.3,88.2,82.6,66.3,50.6,37.0,58,31,14,17.72,17.72,15,6,15,0.20
2013-9-21,82.6,80.6,72.5,79.1,70.4,63.0,100,72,52,17.72,17.72,12,3,13,0.79
2013-9-22,84.9,75.3,69.6,71.9,53.9,28.6,100,55,14,17.72,17.72,11,3,11,0.04
2013-9-23,82.4,71.1,68.2,78.5,55.9,48.8,94,59,46,17.72,17.72,6,1,8,0.00
2013-9-24,88.0,79.7,75.7,82.2,75.5,58.7,100,90,40,17.72,17.72,10,1,10,0.75
2013-9-25,92.8,80.2,72.9,76.1,58.2,27.2,100,61,10,17.72,17.72,12,2,12,0.00
2013-9-26,77.9,77.9,77.9,56.7,56.7,56.7,48,48,48,17.72,17.72,0,0,0,0.00
2013-9-28,90.7,80.8,69.3,60.8,34.5,13.9,74,29,6,17.72,17.72,13,2,13,1.84
2013-9-29,77.0,68.1,66.2,66.8,61.8,54.0,94,81,48,17.72,17.72,4,0,4,1.84
2013-9-30,84.2,77.1,71.1,74.7,58.5,46.7,100,56,28,17.72,17.72,10,2,10,0.00
2013-10-1,90.1,79.7,70.5,73.8,56.2,38.4,100,51,18,17.72,17.72,13,3,13,0.00
2013-10-2,88.2,79.4,73.0,78.1,64.3,41.3,100,64,22,17.72,17.72,11,2,11,0.00
2013-10-3,91.4,81.4,73.2,77.0,62.8,44.3,100,58,20,17.72,17.72,15,4,15,0.00
2013-10-4,91.4,80.4,75.6,74.8,64.9,41.1,88,64,18,29.91,29.85,11,2,14,0.00
2013-10-5,91.2,81.9,75.9,77.0,63.0,39.5,100,58,18,29.88,29.80,20,4,20,0.28
2013-10-6,88.3,77.0,67.6,81.5,68.2,46.1,100,77,34,29.80,29.65,13,3,13,1.30
2013-10-7,77.9,67.6,59.2,47.3,33.0,19.1,62,33,12,29.88,29.77,13,3,13,0.00
2013-10-8,81.0,62.1,55.0,53.3,43.6,19.0,88,60,10,29.91,29.83,9,1,9,0.00
2013-10-9,85.1,84.5,83.7,53.0,49.2,44.3,34,30,26,29.94,29.91,9,5,9,0.00
2013-10-16,82.4,71.5,68.5,65.6,63.1,44.1,84,76,28,29.88,29.85,6,0,6,0.00
2013-10-17,85.6,77.4,67.5,78.3,52.0,36.9,100,45,18,29.85,29.77,11,3,11,0.00
2013-10-18,67.8,66.4,64.6,55.5,53.5,50.4,72,63,54,29.85,29.83,8,1,8,0.00
2013-10-24,77.5,66.4,46.8,50.2,33.5,19.1,80,39,12,30.09,30.03,8,1,8,0.35
2013-10-25,70.3,59.4,49.1,52.1,30.8,10.7,84,41,12,30.24,30.09,15,3,15,0.00
2013-10-26,73.0,57.0,42.8,38.9,24.2,10.6,62,33,12,30.18,30.03,9,1,9,0.00
2013-10-27,77.9,61.8,47.3,60.4,42.2,19.4,96,58,12,30.03,29.94,10,1,10,0.00
2013-10-28,81.1,67.4,55.8,70.9,52.6,30.2,100,69,16,30.06,29.94,11,2,11,0.00
2013-10-29,80.6,68.8,58.5,68.7,55.6,39.3,100,69,24,30.12,30.03,13,2,13,0.00
2013-10-30,83.3,72.4,61.9,71.8,61.1,44.7,100,72,26,30.06,29.91,11,2,11,0.00
2013-10-31,83.7,76.2,71.6,72.0,64.3,51.6,100,70,34,29.91,29.68,14,4,14,0.51
2013-11-1,81.3,70.1,57.2,72.3,54.7,38.1,100,65,22,29.80,29.68,12,2,12,0.04
2013-11-2,78.1,62.6,51.8,53.7,32.6,17.1,84,42,12,30.00,29.77,13,2,13,0.00
2013-11-3,70.3,55.8,45.3,42.0,31.5,18.7,76,46,16,30.09,30.00,9,1,10,0.00
2013-11-4,72.3,61.5,46.9,46.8,39.7,32.9,82,48,26,30.12,30.03,15,3,15,0.00
2013-11-5,74.8,67.6,63.5,57.8,45.0,35.1,78,46,24,30.12,30.00,15,5,15,0.00
2013-11-6,79.2,69.3,59.2,64.9,55.8,46.2,82,63,44,30.00,29.91,12,4,12,0.00
2013-11-7,65.1,56.7,44.6,54.2,33.4,16.8,70,45,20,30.15,30.03,17,3,17,0.00
2013-11-8,67.8,53.3,43.9,34.5,18.7,9.7,66,28,12,30.21,30.06,14,3,14,0.00
2013-11-9,75.7,59.2,42.8,54.5,35.5,19.0,86,48,12,30.09,30.03,10,1,10,0.00
2013-11-10,59.5,59.0,58.1,54.7,48.8,43.5,86,69,56,30.09,30.06,6,2,6,0.00
2013-11-12,73.0,59.3,43.7,54.7,23.3,7.4,98,30,14,30.33,30.06,15,5,17,0.00
2013-11-13,56.3,44.9,35.6,17.4,8.7,3.9,42,23,16,30.39,30.27,15,5,15,0.00
2013-11-14,68.0,52.9,34.3,35.7,17.0,3.9,42,26,12,30.27,30.00,12,3,12,0.00
2013-11-15,71.2,64.1,59.0,68.4,58.2,23.8,100,85,24,30.00,29.85,12,3,12,0.51
2013-11-16,73.6,68.0,63.5,70.7,64.5,53.7,100,90,52,29.94,29.85,13,3,13,0.00
2013-11-17,82.4,72.5,67.3,77.6,66.8,54.0,100,86,38,29.85,29.77,11,3,11,0.00
2013-11-18,73.6,67.1,56.8,73.6,49.8,16.5,100,60,20,29.94,29.80,14,1,15,0.31
2013-11-19,63.1,53.7,44.1,34.1,20.6,10.1,58,30,14,30.03,29.91,13,2,13,0.00
2013-11-20,70.3,63.8,40.5,58.4,41.9,16.7,86,51,16,30.00,29.91,11,3,11,0.00
2013-11-21,72.0,65.4,59.4,61.6,55.6,46.3,96,72,44,30.09,29.97,14,4,14,0.00
2013-11-22,70.2,66.7,63.3,68.9,64.0,58.4,100,91,74,30.06,30.00,9,2,9,0.00
2013-11-23,66.0,65.3,64.9,65.5,63.4,59.0,100,94,78,30.03,30.03,8,2,8,0.00
2013-11-24,49.3,45.3,42.1,9.9,8.3,6.6,24,22,20,30.21,30.15,10,3,10,0.00
2013-11-25,65.1,52.7,41.5,65.1,35.1,6.6,100,57,22,30.15,29.71,20,5,20,0.31
2013-11-26,66.4,53.3,46.2,66.4,49.0,36.6,100,86,58,29.77,29.59,22,6,22,1.38
2013-11-27,51.3,44.2,34.7,25.5,15.0,6.7,60,32,20,30.24,30.00,13,4,15,1.38
2013-11-28,53.1,44.3,29.1,24.5,11.7,4.0,68,29,18,30.36,30.27,10,2,10,0.00
2013-11-30,67.3,53.1,33.1,46.2,29.7,9.7,94,51,16,30.30,30.12,9,2,9,0.00
2013-12-1,66.7,54.2,42.3,53.4,39.8,18.7,100,69,16,30.12,29.88,8,1,8,0.00
2013-12-2,69.1,59.6,48.9,61.3,45.3,18.7,100,72,16,29.88,29.65,11,2,11,0.00
2013-12-3,72.0,64.9,59.7,67.3,60.2,49.9,100,87,46,29.71,29.62,10,4,13,0.00
2013-12-4,68.5,65.9,63.5,68.5,65.9,63.3,100,100,100,29.83,29.71,8,1,8,0.04
2013-12-5,72.7,68.7,66.2,72.2,66.9,60.7,100,94,68,29.88,29.83,11,3,11,0.00
2013-12-6,75.0,66.0,50.2,73.4,63.6,44.0,100,92,62,30.03,29.83,17,4,17,0.43
2013-12-7,50.2,44.4,41.9,47.8,40.4,32.6,100,86,60,30.18,30.03,13,4,13,0.08
2013-12-8,59.2,51.6,43.7,59.2,50.8,43.5,100,97,78,30.09,29.88,6,1,6,0.00
2013-12-9,68.2,61.0,56.1,59.9,52.7,41.6,100,77,38,30.00,29.91,10,2,10,0.04
2013-12-10,61.0,46.5,38.5,59.4,36.3,18.7,100,70,30,30.21,29.91,15,4,16,0.08
2013-12-11,61.9,49.8,37.0,32.4,21.7,7.8,78,38,14,30.27,30.18,10,2,10,0.00
2013-12-12,58.1,48.1,34.9,23.6,12.0,6.6,60,25,16,30.36,30.24,14,4,14,0.00
2013-12-13,60.4,47.3,33.3,43.8,26.2,6.7,66,46,18,30.24,29.91,11,3,11,0.00
2013-12-14,67.6,60.8,51.3,63.3,56.0,38.7,100,85,64,29.88,29.71,17,3,17,0.04
2013-12-15,53.1,45.4,34.5,38.7,24.4,13.1,76,46,24,30.18,29.88,17,4,17,0.00
2013-12-16,34.5,33.3,31.8,30.6,28.3,26.4,86,82,74,30.18,30.15,5,0,5,0.00
2013-12-17,65.1,51.3,34.0,46.6,25.1,10.0,100,44,16,30.21,30.09,11,2,11,0.00
2013-12-18,62.8,46.9,35.2,46.2,29.6,10.3,100,61,16,30.24,30.09,9,2,9,0.00
2013-12-19,69.1,53.2,37.4,60.8,43.1,34.0,100,75,28,30.09,29.91,10,2,10,0.00
2013-12-20,71.4,65.4,59.4,67.1,62.2,54.2,100,91,56,29.97,29.83,10,2,10,0.00
2013-12-21,71.2,67.4,64.0,70.5,66.8,61.6,100,98,72,29.83,29.68,13,4,13,0.00
2013-12-22,68.2,59.9,56.3,68.2,59.1,50.4,100,97,78,30.00,29.71,17,2,17,3.54
2013-12-23,51.4,44.7,37.0,42.9,29.6,22.4,80,56,38,30.30,30.15,16,4,16,3.54
2013-12-24,54.0,41.0,32.7,28.4,21.1,7.5,76,51,18,30.36,30.24,13,3,13,3.54
2013-12-25,51.3,40.9,30.4,26.2,15.4,6.4,76,40,20,30.27,30.15,8,2,8,0.00
2013-12-26,55.8,47.4,41.9,34.1,25.8,10.0,72,48,16,30.18,30.12,8,1,8,0.00
2013-12-27,62.2,51.4,39.0,34.3,16.8,9.8,80,30,14,30.27,30.12,9,3,10,0.00
2013-12-28,53.4,49.4,46.4,50.7,46.4,10.2,100,93,18,30.12,29.80,13,3,13,2.20
2013-12-29,62.1,52.8,43.3,44.0,36.8,23.8,94,60,24,29.97,29.88,8,2,8,2.20
2013-12-30,59.0,50.1,41.0,51.4,43.8,29.1,100,82,32,30.18,29.97,8,0,8,2.20
2013-12-31,50.7,46.6,44.2,45.4,38.5,30.6,100,74,52,30.27,30.15,9,2,9,2.20
2014-1-1,61.5,53.3,44.8,52.3,44.2,34.4,100,74,37,30.21,29.88,7,1,7,0.04
2014-1-2,60.4,56.7,36.7,54.6,44.4,15.3,84,68,20,30.21,29.80,23,4,23,0.24